Location: Be?i?
(36.9044°N, 30.1006°E)
Time: 12:19:58
(UTC+00:00)

CSL-04 Debris - Pass Details

Date: 05 August 2024
Orbit: 822 x 842 km, 98.8° (Epoch: 08 September)

Event Time Altitude Azimuth Distance (km) Brightness Sun altitude
Exits shadow 17:43:57 - 158° (SSE) 3,158 6.7 -8.4°
Reaches altitude 10° 17:45:49 10° 156° (SSE) 2,419 6.1 -8.7°
Maximum altitude 17:51:08 70° 74° (ENE) 882 4.2 -9.7°
Drops below altitude 10° 17:56:31 10° 352° (N) 2,447 7.2 -10.6°
Sets 17:58:54 0° 350° (N) 3,388 8.0 -11.0°
